GW5381 Weather Reports


Display with metric or nautical units.
time (UTC)temp
F
wind
direction
speed
MPH
gust
MPH
rain 1hr
in
rain 24hr
in
rain mn
in
humidity
%
barometer
mb
20260505054257 65 225 1.0 4.0 0.00 0.00 0.00 59 1007.3
20260505053755 65 192 1.0 8.0 0.00 0.00 0.00 58 1007.3
20260505053251 65 170 1.0 7.0 0.00 0.00 0.00 58 1007.2
20260505052748 65 265 2.0 10.0 0.00 0.00 0.00 59 1007.2
20260505052245 66 284 3.0 4.0 0.00 0.00 0.00 59 1007.5
20260505051742 66 84 2.0 9.0 0.00 0.00 0.00 59 1007.5
20260505051240 66 195 1.0 4.0 0.00 0.00 0.00 58 1007.5
20260505050738 66 295 2.0 3.0 0.00 0.00 0.00 58 1007.6
20260505050236 66 106 1.0 4.0 0.00 0.00 0.00 58 1007.6
20260505041706 67 256 2.0 3.0 0.00 0.00 0.00 57 1007.9
20260505041203 67 106 1.0 3.0 0.00 0.00 0.00 58 1007.9
20260505040700 67 115 2.0 3.0 0.00 0.00 0.00 58 1008.0
20260505040157 67 102 1.0 3.0 0.00 0.00 0.00 59 1008.0
20260505035654 67 149 1.0 2.0 0.00 0.00 0.00 59 1007.8
20260505035150 67 154 1.0 4.0 0.00 0.00 0.00 58 1007.6
20260505034647 67 257 3.0 7.0 0.00 0.00 0.00 58 1007.8
20260505034144 67 161 1.0 7.0 0.00 0.00 0.00 59 1008.0
20260505033640 67 158 1.0 2.0 0.00 0.00 0.00 58 1007.8
20260505033139 67 210 2.0 4.0 0.00 0.00 0.00 58 1007.9
20260505032636 67 132 1.0 3.0 0.00 0.00 0.00 58 1007.9
20260505032132 67 103 0.0 3.0 0.00 0.00 0.00 58 1007.8
20260505031630 67 184 1.0 2.0 0.00 0.00 0.00 58 1007.8
20260505031125 68 102 0.0 6.0 0.00 0.00 0.00 58 1007.9
20260505030623 68 112 1.0 6.0 0.00 0.00 0.00 57 1007.5
20260505030119 68 155 2.0 3.0 0.00 0.00 0.00 57 1007.4
20260505025614 68 311 4.0 6.0 0.00 0.00 0.00 57 1007.6
20260505025114 68 81 2.0 4.0 0.00 0.00 0.00 57 1007.6
20260505024611 68 242 2.0 6.0 0.00 0.00 0.00 56 1007.6
20260505024108 69 151 2.0 3.0 0.00 0.00 0.00 56 1007.3
20260505023605 69 188 1.0 3.0 0.00 0.00 0.00 56 1007.2
20260505023103 69 133 3.0 4.0 0.00 0.00 0.00 55 1007.4
20260505022600 69 299 2.0 7.0 0.00 0.00 0.00 55 1007.4
20260505022056 69 155 2.0 7.0 0.00 0.00 0.00 54 1007.3
20260505021553 69 220 2.0 6.0 0.00 0.00 0.00 54 1007.1
20260505021050 69 199 1.0 4.0 0.00 0.00 0.00 54 1007.2
20260505020550 69 229 3.0 3.0 0.00 0.00 0.00 54 1007.0
20260505020047 70 277 4.0 4.0 0.00 0.00 0.00 54 1006.7
20260505015544 70 260 2.0 6.0 0.00 0.00 0.00 53 1006.9
20260505015041 70 291 5.0 6.0 0.00 0.00 0.00 53 1006.9
20260505014538 70 295 2.0 6.0 0.00 0.00 0.00 54 1006.9
20260505014035 70 308 2.0 4.0 0.00 0.00 0.00 54 1006.8
20260505013532 70 160 1.0 7.0 0.00 0.00 0.00 54 1006.6
20260505013029 70 159 1.0 3.0 0.00 0.00 0.00 54 1006.8
20260505012527 70 142 1.0 3.0 0.00 0.00 0.00 54 1006.6
20260505012024 70 138 1.0 3.0 0.00 0.00 0.00 54 1006.7
20260505011519 70 322 3.0 4.0 0.00 0.00 0.00 53 1006.6
20260505011017 70 118 2.0 3.0 0.00 0.00 0.00 53 1006.7
20260505010512 71 179 1.0 2.0 0.00 0.00 0.00 53 1006.6
20260505010009 71 200 0.0 6.0 0.00 0.00 0.00 52 1006.6
20260505005505 71 170 0.0 3.0 0.00 0.00 0.00 52 1006.6
20260505005004 71 224 2.0 2.0 0.00 0.00 0.00 52 1006.6
20260505004500 71 165 1.0 4.0 0.00 0.00 0.00 51 1006.6
20260505003956 71 110 1.0 7.0 0.00 0.00 0.00 51 1006.4
20260505003454 71 104 2.0 4.0 0.00 0.00 0.00 51 1006.6
20260505002950 71 271 2.0 3.0 0.00 0.00 0.00 51 1006.7
20260505002446 72 182 0.0 2.0 0.00 0.00 0.00 51 1006.9
20260505001944 72 178 2.0 3.0 0.00 0.00 0.00 50 1006.6
20260505001442 72 111 0.0 1.0 0.00 0.00 0.00 50 1006.7
20260505000939 73 279 2.0 4.0 0.00 0.00 0.00 48 1006.6
20260505000437 73 159 0.0 3.0 0.00 0.00 0.00 48 1006.8
20260504235933 73 143 1.0 3.0 0.00 0.00 0.00 48 1006.7
20260504235431 73 192 1.0 1.0 0.00 0.00 0.00 47 1006.7
20260504234926 74 133 2.0 4.0 0.00 0.00 0.00 46 1007.1
20260504234424 74 112 2.0 6.0 0.00 0.00 0.00 47 1007.0
20260504233921 74 107 1.0 3.0 0.00 0.00 0.00 45 1007.2
20260504233416 74 278 2.0 4.0 0.00 0.00 0.00 45 1007.4
20260504232913 74 130 1.0 2.0 0.00 0.00 0.00 45 1007.2
20260504232410 75 112 1.0 2.0 0.00 0.00 0.00 44 1007.3
20260504231907 75 120 0.0 1.0 0.00 0.00 0.00 44 1007.5
20260504231404 75 239 1.0 4.0 0.00 0.00 0.00 43 1007.4
20260504230900 76 127 1.0 2.0 0.00 0.00 0.00 43 1007.4
20260504230357 76 111 1.0 6.0 0.00 0.00 0.00 43 1007.4
20260504225856 76 303 1.0 4.0 0.00 0.00 0.00 42 1007.3
20260504225352 76 131 1.0 9.0 0.00 0.00 0.00 43 1007.4
20260504224850 77 290 2.0 9.0 0.00 0.00 0.00 42 1007.3
20260504224346 77 109 1.0 4.0 0.00 0.00 0.00 43 1007.5
20260504223843 76 146 0.0 1.0 0.00 0.00 0.00 43 1007.5
20260504223338 76 129 1.0 4.0 0.00 0.00 0.00 43 1007.6
20260504222835 76 138 5.0 8.0 0.00 0.00 0.00 41 1007.7
20260504222332 76 64 2.0 6.0 0.00 0.00 0.00 43 1007.5
20260504221831 77 131 6.0 9.0 0.00 0.00 0.00 40 1007.6
20260504221327 77 266 5.0 7.0 0.00 0.00 0.00 40 1007.5
20260504220824 78 115 0.0 3.0 0.00 0.00 0.00 44 1007.3
20260504220321 78 137 1.0 4.0 0.00 0.00 0.00 43 1007.6
20260504215819 78 256 0.0 3.0 0.00 0.00 0.00 44 1007.5
20260504215315 77 159 2.0 4.0 0.00 0.00 0.00 43 1007.6
20260504214811 77 282 2.0 6.0 0.00 0.00 0.00 44 1007.7
20260504214308 77 166 1.0 3.0 0.00 0.00 0.00 47 1007.6
20260504213804 77 139 1.0 2.0 0.00 0.00 0.00 47 1007.7
20260504213300 77 173 2.0 4.0 0.00 0.00 0.00 49 1007.7
20260504212758 77 213 1.0 3.0 0.00 0.00 0.00 48 1007.9
20260504212254 76 126 0.0 1.0 0.00 0.00 0.00 49 1008.1
20260504211752 75 118 0.0 1.0 0.00 0.00 0.00 52 1007.9
20260504211247 75 235 1.0 4.0 0.00 0.00 0.00 46 1008.1
20260504210745 76 230 3.0 3.0 0.00 0.00 0.00 45 1008.1
20260504210242 78 136 2.0 2.0 0.00 0.00 0.00 44 1008.1
20260504205739 81 119 1.0 3.0 0.00 0.00 0.00 41 1008.1
20260504205237 80 116 0.0 3.0 0.00 0.00 0.00 43 1008.3
20260504204735 80 152 1.0 3.0 0.00 0.00 0.00 42 1008.2
20260504204233 79 266 1.0 1.0 0.00 0.00 0.00 44 1008.3
20260504203732 79 127 1.0 4.0 0.00 0.00 0.00 44 1008.3
20260504203229 78 106 2.0 3.0 0.00 0.00 0.00 43 1008.5
20260504202729 78 65 2.0 6.0 0.00 0.00 0.00 44 1008.6
20260504202226 76 216 1.0 2.0 0.00 0.00 0.00 50 1008.5
20260504201723 76 122 0.0 4.0 0.00 0.00 0.00 50 1008.6
20260504201220 76 101 1.0 4.0 0.00 0.00 0.00 47 1008.9
20260504200718 76 148 0.0 3.0 0.00 0.00 0.00 49 1008.8
20260504200214 76 124 2.0 2.0 0.00 0.00 0.00 47 1008.9
20260504195711 77 101 2.0 3.0 0.00 0.00 0.00 47 1009.0
20260504195207 77 125 0.0 1.0 0.00 0.00 0.00 48 1009.0
20260504194704 77 244 3.0 4.0 0.00 0.00 0.00 48 1009.1
20260504194200 76 112 1.0 3.0 0.00 0.00 0.00 46 1009.3
20260504193656 75 12 1.0 4.0 0.00 0.00 0.00 48 1009.3
20260504193154 76 115 1.0 2.0 0.00 0.00 0.00 47 1009.5
20260504192652 77 250 4.0 4.0 0.00 0.00 0.00 47 1009.5
20260504192150 76 238 1.0 4.0 0.00 0.00 0.00 49 1009.5
20260504191648 76 154 1.0 3.0 0.00 0.00 0.00 49 1009.5
20260504191144 77 159 2.0 6.0 0.00 0.00 0.00 47 1010.0
20260504190640 76 180 1.0 4.0 0.00 0.00 0.00 51 1009.9
20260504190137 74 148 3.0 4.0 0.00 0.00 0.00 51 1010.0
20260504185633 73 121 1.0 3.0 0.00 0.00 0.00 56 1010.0
20260504185130 72 109 1.0 1.0 0.00 0.00 0.00 56 1010.0
20260504184626 72 189 3.0 4.0 0.00 0.00 0.00 54 1010.0
20260504184121 72 100 2.0 3.0 0.00 0.00 0.00 54 1010.0
20260504183618 72 92 3.0 6.0 0.00 0.00 0.00 54 1009.9
20260504183116 72 111 0.0 6.0 0.00 0.00 0.00 58 1009.9
20260504182614 71 124 0.0 2.0 0.00 0.00 0.00 58 1009.8
20260504182111 71 131 1.0 3.0 0.00 0.00 0.00 56 1009.8
20260504181608 71 182 0.0 2.0 0.00 0.00 0.00 55 1009.8
20260504181105 72 273 4.0 10.0 0.00 0.00 0.00 54 1009.8
20260504180604 71 302 1.0 4.0 0.00 0.00 0.00 57 1009.7
20260504180103 71 169 2.0 4.0 0.00 0.00 0.00 56 1009.5
20260504175600 70 131 1.0 6.0 0.00 0.00 0.00 57 1009.4
20260504175056 69 72 2.0 4.0 0.00 0.00 0.00 56 1009.7
20260504174555 69 203 1.0 6.0 0.00 0.00 0.00 57 1009.8
20260504174051 70 110 2.0 8.0 0.00 0.00 0.00 57 1009.8
20260504173548 70 109 1.0 3.0 0.00 0.00 0.00 57 1009.7
20260504173045 71 152 2.0 3.0 0.00 0.00 0.00 53 1009.8
20260504172541 69 100 0.0 3.0 0.00 0.00 0.00 57 1009.7
20260504172038 68 166 2.0 4.0 0.00 0.00 0.00 58 1009.9
20260504171535 67 120 1.0 4.0 0.00 0.00 0.00 59 1009.8
20260504171032 68 298 4.0 4.0 0.00 0.00 0.00 56 1009.7
20260504170527 69 303 5.0 8.0 0.00 0.00 0.00 54 1009.5
20260504150912 65 123 0.0 3.0 0.00 0.00 0.00 58 1010.4
20260504150408 65 117 1.0 2.0 0.00 0.00 0.00 59 1010.4
20260504140835 60 117 0.0 2.0 0.00 0.00 0.00 65 1010.3
20260504140330 60 106 2.0 6.0 0.00 0.00 0.00 65 1010.4
20260504130759 57 119 0.0 6.0 0.00 0.00 0.00 69 1011.1
20260504130255 56 143 1.0 3.0 0.00 0.00 0.00 67 1011.2
20260504120219 56 97 0.0 4.0 0.00 0.00 0.00 66 1011.2
20260504110647 55 111 1.0 3.0 0.00 0.00 0.00 64 1010.9
20260504110143 55 148 1.0 2.0 0.00 0.00 0.00 63 1010.8
20260504100609 51 143 0.0 1.0 0.00 0.00 0.00 67 1011.2
20260504100107 51 145 1.0 1.0 0.00 0.00 0.00 68 1011.1
20260504082003 52 157 1.0 6.0 0.00 0.00 0.00 62 1011.7
20260504081500 52 7 3.0 6.0 0.00 0.00 0.00 62 1011.8
20260504080954 52 154 2.0 4.0 0.00 0.00 0.00 60 1011.8
20260504080452 52 159 1.0 3.0 0.00 0.00 0.00 60 1011.6